Weather History for Nogales, AZ

Change the Weather History Date:

Sunday, May 10, 2009

  Actual Average (KTUS) Record (KTUS)
Temperature  
Mean Temperature 77 °F 74 °F  
Max Temperature 95 °F 90 °F 106 °F (1934)
Min Temperature 59 °F 59 °F 39 °F (1930)
Degree Days  
Heating Degree Days 0 0  
Month to date heating degree days 3  
Since 1 July heating degree days 1509  
Cooling Degree Days 12 9  
Month to date cooling degree days 82  
Year to date cooling degree days 236  
Growing Degree Days 27 (Base 50)    
Moisture  
Dew Point 20 °F    
Average Humidity 13    
Maximum Humidity 29    
Minimum Humidity 5    
Precipitation  
Precipitation 0.00 in 0.01 in 0.37 in (1904)
Month to date precipitation 0.07  
Year to date precipitation 2.91  
Sea Level Pressure  
Sea Level Pressure 29.79 in    
Wind  
Wind Speed 6 mph (SSE)    
Max Wind Speed 15 mph    
Max Gust Speed 23 mph    
Visibility 10 miles    
Events      
T = Trace of Precipitation, MM = Missing Value Source: NWS Daily Summary

Daily Weather History Graph

Daily Weather History Graph

Search for Another Location

Airport:

Trip Planner

Search our weather history database for the weather conditions in past years. The results will help you decide how hot, cold, wet, or windy it might be!

Date:

Astronomy

May. 10, 2009 Rise Set
Actual Time 5:30 AM MST 7:09 PM MST
Civil Twilight 5:04 AM MST 7:35 PM MST
Nautical Twilight 4:32 AM MST 8:07 PM MST
Astronomical Twilight 3:59 AM MST 8:40 PM MST
Moon 9:03 PM MST (5/10) 6:13 AM MST (5/10)
Length of Visible Light 14h 31m
Length of Day
13h 38m
Full, 97% of the Moon is Illuminated
May 10
Full
May 17
Last Quarter
May 24
New
May 30
First Quarter
Jun 7
Full

Hourly Weather History & Observations

Time (MST) Temp. Dew Point Humidity Pressure Visibility Wind Dir Wind Speed Gust Speed Precip Events Conditions
12:54 AM 66.9 °F 21.9 °F 18% 29.80 in 10.0 mi Calm Calm - N/A   Clear
1:54 AM 63.0 °F 23.0 °F 22% 29.80 in 10.0 mi ENE 3.5 mph - N/A   Clear
2:54 AM 62.1 °F 25.0 °F 24% 29.80 in 10.0 mi East 5.8 mph - N/A   Clear
3:54 AM 61.0 °F 26.1 °F 26% 29.81 in 10.0 mi East 5.8 mph - N/A   Clear
4:54 AM 59.0 °F 27.0 °F 29% 29.81 in 10.0 mi NE 4.6 mph - N/A   Clear
6:54 AM 68.0 °F 28.9 °F 23% 29.83 in 10.0 mi NNE 3.5 mph - N/A   Clear
7:54 AM 75.0 °F 30.0 °F 19% 29.84 in 10.0 mi SSE 3.5 mph - N/A   Clear
8:54 AM 82.9 °F 19.0 °F 9% 29.83 in 10.0 mi South 8.1 mph - N/A   Clear
9:54 AM 87.1 °F 21.0 °F 9% 29.83 in 10.0 mi Variable 6.9 mph - N/A   Clear
10:54 AM 90.0 °F 17.1 °F 7% 29.82 in 10.0 mi South 12.7 mph - N/A   Clear
11:54 AM 91.9 °F 14.0 °F 6% 29.79 in 10.0 mi Variable 6.9 mph 19.6 mph N/A   Clear
12:54 PM 95.0 °F 12.0 °F 5% 29.78 in 10.0 mi SW 15.0 mph 23.0 mph N/A   Clear
1:54 PM 93.9 °F 12.9 °F 5% 29.78 in 10.0 mi WSW 11.5 mph 21.9 mph N/A   Clear
2:54 PM 95.0 °F 15.1 °F 5% 29.77 in 10.0 mi South 13.8 mph 21.9 mph N/A   Clear
3:54 PM 93.9 °F 15.1 °F 6% 29.75 in 10.0 mi West 15.0 mph 20.7 mph N/A   Clear
4:54 PM 93.0 °F 17.1 °F 6% 29.75 in 10.0 mi SSW 12.7 mph 16.1 mph N/A   Clear
5:54 PM 91.0 °F 17.1 °F 7% 29.76 in 10.0 mi SW 12.7 mph 20.7 mph N/A   Clear
6:54 PM 87.1 °F 19.0 °F 8% 29.75 in 10.0 mi WSW 8.1 mph - N/A   Clear
7:54 PM 82.0 °F 19.9 °F 10% 29.76 in 10.0 mi Calm Calm - N/A   Clear
8:54 PM 73.0 °F 19.9 °F 14% 29.79 in 10.0 mi East 4.6 mph - N/A   Clear
9:54 PM 71.1 °F 19.0 °F 14% 29.79 in 10.0 mi East 6.9 mph - N/A   Clear
10:54 PM 73.0 °F 18.0 °F 12% 29.78 in 10.0 mi SSE 5.8 mph - N/A   Clear
11:54 PM 73.0 °F 19.0 °F 13% 29.79 in 10.0 mi South 4.6 mph - N/A   Clear